Location: Oristano
(39.9000°N, 8.6000°E)
Time: 22:52:07
(UTC+01:00)

ISS - Visible Passes

Search period start: 18 January 2019 00:00
Search period end: 28 January 2019 00:00
Orbit: 404 x 410 km, 51.6° (Epoch: 18 January)

Date Brightness Start Highest point End Pass type
(mag) Time Alt. Az. Time Alt. Az. Time Alt. Az.
20 Jan -1.6 19:33:37 10° SSW 19:34:50 20° SSW 19:34:50 20° SSW visible
21 Jan -2.3 18:42:55 10° S 18:45:31 22° SE 18:46:01 21° ESE visible
21 Jan -0.2 20:18:45 10° WSW 20:18:46 10° WSW 20:18:46 10° WSW visible
22 Jan -3.1 19:27:10 10° WSW 19:29:52 54° W 19:29:52 54° W visible
23 Jan -3.6 18:35:51 10° SW 18:39:05 57° SE 18:40:53 24° ENE visible
23 Jan -0.4 20:13:12 10° WNW 20:13:37 12° WNW 20:13:37 12° WNW visible
24 Jan -2.5 19:21:16 10° W 19:24:17 32° NNW 19:24:32 32° NNW visible
25 Jan -3.3 18:29:33 10° WSW 18:32:47 54° NNW 18:35:23 15° NE visible
25 Jan -0.5 20:07:56 10° NW 20:08:06 11° NW 20:08:06 11° NW visible
26 Jan -1.7 19:15:46 10° WNW 19:18:13 19° NNW 19:18:52 18° N visible
27 Jan -2.1 18:23:43 10° W 18:26:35 27° NNW 18:29:27 10° NNE visible
